owner,sensor,date,latitude,longitude,air_temperature,qcFlag 
DISL,ioos:station:DISL:BSCA:1,2018-05-01T12:57:00Z,30.3288,-87.8293,21.73,1111122 
DISL,ioos:station:DISL:BSCA:1,2018-05-01T15:37:00Z,30.3288,-87.8293,22.89,1111122 
DISL,ioos:station:DISL:BSCA:1,2018-05-01T22:01:00Z,30.3288,-87.8293,23.23,1111122 
DISL,ioos:station:DISL:BSCA:1,2018-05-01T23:37:00Z,30.3288,-87.8293,23.06,1111122 
DISL,ioos:station:DISL:BSCA:1,2018-05-02T01:30:00Z,30.3288,-87.8293,22.5,11111222 
DISL,ioos:station:DISL:BSCA:1,2018-05-02T02:00:00Z,30.3288,-87.8293,22.5,11111222 
DISL,ioos:station:DISL:BSCA:1,2018-05-02T02:30:00Z,30.3288,-87.8293,22.6,11111222 
DISL,ioos:station:DISL:BSCA:1,2018-05-02T03:00:00Z,30.3288,-87.8293,22.68,1111122 
DISL,ioos:station:DISL:BSCA:1,2018-05-02T03:30:00Z,30.3288,-87.8293,22.6,11111222 
DISL,ioos:station:DISL:BSCA:1,2018-05-02T04:00:00Z,30.3288,-87.8293,22.5,1111122 
DISL,ioos:station:DISL:BSCA:1,2018-05-02T04:30:00Z,30.3288,-87.8293,22.5,11111222 
DISL,ioos:station:DISL:BSCA:1,2018-05-02T05:00:00Z,30.3288,-87.8293,22.67,1111122 
DISL,ioos:station:DISL:BSCA:1,2018-05-02T05:30:00Z,30.3288,-87.8293,21.7,11111222 
DISL,ioos:station:DISL:BSCA:1,2018-05-02T06:00:00Z,30.3288,-87.8293,21.36,1111122 
DISL,ioos:station:DISL:BSCA:1,2018-05-02T06:30:00Z,30.3288,-87.8293,20.8,11111222 
DISL,ioos:station:DISL:BSCA:1,2018-05-02T07:00:00Z,30.3288,-87.8293,20.75,1111122 
DISL,ioos:station:DISL:BSCA:1,2018-05-02T08:30:00Z,30.3288,-87.8293,19.7,11111222 
DISL,ioos:station:DISL:BSCA:1,2018-05-02T09:00:00Z,30.3288,-87.8293,20.0,11111222 
DISL,ioos:station:DISL:BSCA:1,2018-05-02T09:03:00Z,30.3288,-87.8293,19.97,1111122 
DISL,ioos:station:DISL:BSCA:1,2018-05-02T10:00:00Z,30.3288,-87.8293,19.2,11111222 
DISL,ioos:station:DISL:BSCA:1,2018-05-02T10:30:00Z,30.3288,-87.8293,19.1,11111222 
DISL,ioos:station:DISL:BSCA:1,2018-05-02T11:00:00Z,30.3288,-87.8293,18.8,11111222 
DISL,ioos:station:DISL:BSCA:1,2018-05-02T11:30:00Z,30.3288,-87.8293,18.6,11111222 
DISL,ioos:station:DISL:BSCA:1,2018-05-02T12:00:00Z,30.3288,-87.8293,19.0,11111222 
DISL,ioos:station:DISL:BSCA:1,2018-05-02T12:04:00Z,30.3288,-87.8293,19.02,1111122 
DISL,ioos:station:DISL:BSCA:1,2018-05-02T12:30:00Z,30.3288,-87.8293,19.5,11111222 
DISL,ioos:station:DISL:BSCA:1,2018-05-02T13:00:00Z,30.3288,-87.8293,20.6,11111222 
DISL,ioos:station:DISL:BSCA:1,2018-05-02T13:30:00Z,30.3288,-87.8293,21.5,11111222 
DISL,ioos:station:DISL:BSCA:1,2018-05-02T14:00:00Z,30.3288,-87.8293,22.57,1111122 
DISL,ioos:station:DISL:BSCA:1,2018-05-02T14:30:00Z,30.3288,-87.8293,22.7,11111222 
DISL,ioos:station:DISL:BSCA:1,2018-05-02T15:00:00Z,30.3288,-87.8293,22.89,1111122 
DISL,ioos:station:DISL:BSCA:1,2018-05-02T15:30:00Z,30.3288,-87.8293,23.1,11111222 
DISL,ioos:station:DISL:BSCA:1,2018-05-02T16:00:00Z,30.3288,-87.8293,23.27,1111122 
DISL,ioos:station:DISL:BSCA:1,2018-05-02T16:30:00Z,30.3288,-87.8293,23.3,1111122 
DISL,ioos:station:DISL:BSCA:1,2018-05-02T17:30:00Z,30.3288,-87.8293,23.4,11111222 
DISL,ioos:station:DISL:BSCA:1,2018-05-02T18:00:00Z,30.3288,-87.8293,23.4,11111222 
DISL,ioos:station:DISL:BSCA:1,2018-05-02T18:04:00Z,30.3288,-87.8293,23.47,1111122 
DISL,ioos:station:DISL:BSCA:1,2018-05-02T18:30:00Z,30.3288,-87.8293,23.6,11111222 
DISL,ioos:station:DISL:BSCA:1,2018-05-02T19:00:00Z,30.3288,-87.8293,23.6,11111222 
DISL,ioos:station:DISL:BSCA:1,2018-05-02T19:30:00Z,30.3288,-87.8293,23.5,11111222 
DISL,ioos:station:DISL:BSCA:1,2018-05-02T20:00:00Z,30.3288,-87.8293,23.6,11111222 
DISL,ioos:station:DISL:BSCA:1,2018-05-02T20:30:00Z,30.3288,-87.8293,23.4,11111222 
DISL,ioos:station:DISL:BSCA:1,2018-05-02T21:00:00Z,30.3288,-87.8293,23.5,11111222 
DISL,ioos:station:DISL:BSCA:1,2018-05-02T21:30:00Z,30.3288,-87.8293,23.6,11111222 
DISL,ioos:station:DISL:BSCA:1,2018-05-02T22:00:00Z,30.3288,-87.8293,23.8,11111222 
DISL,ioos:station:DISL:BSCA:1,2018-05-02T22:30:00Z,30.3288,-87.8293,24.2,11111222 
DISL,ioos:station:DISL:BSCA:1,2018-05-02T23:00:00Z,30.3288,-87.8293,24.1,11111222 
DISL,ioos:station:DISL:BSCA:1,2018-05-02T23:30:00Z,30.3288,-87.8293,23.9,11111222 
DISL,ioos:station:DISL:BSCA:1,2018-05-03T00:00:00Z,30.3288,-87.8293,23.5,11111222 
DISL,ioos:station:DISL:BSCA:1,2018-05-03T00:30:00Z,30.3288,-87.8293,23.2,11111222 
DISL,ioos:station:DISL:BSCA:1,2018-05-03T01:00:00Z,30.3288,-87.8293,22.8,11111222 
DISL,ioos:station:DISL:BSCA:1,2018-05-03T01:30:00Z,30.3288,-87.8293,22.6,11111222 
DISL,ioos:station:DISL:BSCA:1,2018-05-03T02:00:00Z,30.3288,-87.8293,22.7,11111222 
DISL,ioos:station:DISL:BSCA:1,2018-05-03T02:30:00Z,30.3288,-87.8293,22.7,11111222 
DISL,ioos:station:DISL:BSCA:1,2018-05-03T03:00:00Z,30.3288,-87.8293,22.6,11111222 
DISL,ioos:station:DISL:BSCA:1,2018-05-03T03:30:00Z,30.3288,-87.8293,22.6,11111222 
DISL,ioos:station:DISL:BSCA:1,2018-05-03T04:00:00Z,30.3288,-87.8293,22.6,11111222 
DISL,ioos:station:DISL:BSCA:1,2018-05-03T04:30:00Z,30.3288,-87.8293,22.8,11111222 
DISL,ioos:station:DISL:BSCA:1,2018-05-03T05:00:00Z,30.3288,-87.8293,22.7,11111222 
DISL,ioos:station:DISL:BSCA:1,2018-05-03T05:04:00Z,30.3288,-87.8293,22.78,1111122 
DISL,ioos:station:DISL:BSCA:1,2018-05-03T06:00:00Z,30.3288,-87.8293,22.8,11111222 
DISL,ioos:station:DISL:BSCA:1,2018-05-03T06:30:00Z,30.3288,-87.8293,21.5,11111222 
DISL,ioos:station:DISL:BSCA:1,2018-05-03T07:00:00Z,30.3288,-87.8293,21.29,1111122 
DISL,ioos:station:DISL:BSCA:1,2018-05-03T07:30:00Z,30.3288,-87.8293,21.12,1111122 
DISL,ioos:station:DISL:BSCA:1,2018-05-03T08:30:00Z,30.3288,-87.8293,20.6,11111222 
DISL,ioos:station:DISL:BSCA:1,2018-05-03T09:00:00Z,30.3288,-87.8293,20.51,1111122 
DISL,ioos:station:DISL:BSCA:1,2018-05-03T11:00:00Z,30.3288,-87.8293,19.69,1111122 
DISL,ioos:station:DISL:BSCA:1,2018-05-03T11:30:00Z,30.3288,-87.8293,19.83,1111122 
DISL,ioos:station:DISL:BSCA:1,2018-05-05T23:00:00Z,30.3288,-87.8293,24.01,1111122 
DISL,ioos:station:DISL:BSCA:1,2018-05-05T23:30:00Z,30.3288,-87.8293,23.7,11111222 
DISL,ioos:station:DISL:BSCA:1,2018-05-05T23:31:00Z,30.3288,-87.8293,23.81,1111122 
DISL,ioos:station:DISL:BSCA:1,2018-05-06T00:30:00Z,30.3288,-87.8293,23.8,11111222 
DISL,ioos:station:DISL:BSCA:1,2018-05-06T01:00:00Z,30.3288,-87.8293,23.3,11111222 
DISL,ioos:station:DISL:BSCA:1,2018-05-06T01:01:00Z,30.3288,-87.8293,23.33,1111122 
DISL,ioos:station:DISL:BSCA:1,2018-05-06T01:30:00Z,30.3288,-87.8293,23.2,11111222 
DISL,ioos:station:DISL:BSCA:1,2018-05-06T01:31:00Z,30.3288,-87.8293,23.23,1111122 
DISL,ioos:station:DISL:BSCA:1,2018-05-06T03:30:00Z,30.3288,-87.8293,22.7,11111222 
DISL,ioos:station:DISL:BSCA:1,2018-05-06T04:00:00Z,30.3288,-87.8293,22.2,11111222 
DISL,ioos:station:DISL:BSCA:1,2018-05-06T04:04:00Z,30.3288,-87.8293,22.16,1111122 
DISL,ioos:station:DISL:BSCA:1,2018-05-06T04:30:00Z,30.3288,-87.8293,22.0,11111222 
DISL,ioos:station:DISL:BSCA:1,2018-05-06T05:00:00Z,30.3288,-87.8293,21.6,11111222 
DISL,ioos:station:DISL:BSCA:1,2018-05-06T05:01:00Z,30.3288,-87.8293,21.46,1111122 
DISL,ioos:station:DISL:BSCA:1,2018-05-06T05:30:00Z,30.3288,-87.8293,21.3,11111222 
DISL,ioos:station:DISL:BSCA:1,2018-05-06T06:00:00Z,30.3288,-87.8293,20.7,11111222 
DISL,ioos:station:DISL:BSCA:1,2018-05-06T06:01:00Z,30.3288,-87.8293,20.71,1111122 
DISL,ioos:station:DISL:BSCA:1,2018-05-06T06:30:00Z,30.3288,-87.8293,20.4,11111222 
DISL,ioos:station:DISL:BSCA:1,2018-05-06T07:00:00Z,30.3288,-87.8293,20.2,11111222 
DISL,ioos:station:DISL:BSCA:1,2018-05-06T07:01:00Z,30.3288,-87.8293,20.17,1111122 
DISL,ioos:station:DISL:BSCA:1,2018-05-06T07:30:00Z,30.3288,-87.8293,20.2,11111222 
DISL,ioos:station:DISL:BSCA:1,2018-05-06T07:31:00Z,30.3288,-87.8293,19.8,1111122 
DISL,ioos:station:DISL:BSCA:1,2018-05-06T09:30:00Z,30.3288,-87.8293,19.1,11111222 
DISL,ioos:station:DISL:BSCA:1,2018-05-06T10:00:00Z,30.3288,-87.8293,19.0,11111222 
DISL,ioos:station:DISL:BSCA:1,2018-05-06T10:30:00Z,30.3288,-87.8293,18.3,11111222 
DISL,ioos:station:DISL:BSCA:1,2018-05-06T11:00:00Z,30.3288,-87.8293,17.9,11111222 
DISL,ioos:station:DISL:BSCA:1,2018-05-06T11:30:00Z,30.3288,-87.8293,18.0,11111222 
DISL,ioos:station:DISL:BSCA:1,2018-05-06T12:00:00Z,30.3288,-87.8293,18.4,11111222 
DISL,ioos:station:DISL:BSCA:1,2018-05-06T12:30:00Z,30.3288,-87.8293,18.6,11111222 
DISL,ioos:station:DISL:BSCA:1,2018-05-06T13:00:00Z,30.3288,-87.8293,19.4,11111222 
DISL,ioos:station:DISL:BSCA:1,2018-05-06T13:30:00Z,30.3288,-87.8293,20.3,11111222 
DISL,ioos:station:DISL:BSCA:1,2018-05-06T14:00:00Z,30.3288,-87.8293,21.8,11111222 
DISL,ioos:station:DISL:BSCA:1,2018-05-06T14:30:00Z,30.3288,-87.8293,22.3,11111222 
DISL,ioos:station:DISL:BSCA:1,2018-05-06T15:00:00Z,30.3288,-87.8293,22.7,11111222 
DISL,ioos:station:DISL:BSCA:1,2018-05-06T15:30:00Z,30.3288,-87.8293,23.2,11111222 
DISL,ioos:station:DISL:BSCA:1,2018-05-06T16:00:00Z,30.3288,-87.8293,23.6,11111222 
DISL,ioos:station:DISL:BSCA:1,2018-05-06T16:30:00Z,30.3288,-87.8293,24.2,11111222 
DISL,ioos:station:DISL:BSCA:1,2018-05-06T17:00:00Z,30.3288,-87.8293,23.7,11111222 
DISL,ioos:station:DISL:BSCA:1,2018-05-06T17:01:00Z,30.3288,-87.8293,24.05,1111122 
DISL,ioos:station:DISL:BSCA:1,2018-05-06T17:30:00Z,30.3288,-87.8293,24.3,11111222 
DISL,ioos:station:DISL:BSCA:1,2018-05-06T18:00:00Z,30.3288,-87.8293,24.5,11111222 
DISL,ioos:station:DISL:BSCA:1,2018-05-06T18:01:00Z,30.3288,-87.8293,24.59,1111122 
DISL,ioos:station:DISL:BSCA:1,2018-05-06T18:30:00Z,30.3288,-87.8293,25.0,11111222 
DISL,ioos:station:DISL:BSCA:1,2018-05-06T19:00:00Z,30.3288,-87.8293,25.4,11111222 
DISL,ioos:station:DISL:BSCA:1,2018-05-06T19:01:00Z,30.3288,-87.8293,25.37,1111122 
DISL,ioos:station:DISL:BSCA:1,2018-05-06T19:30:00Z,30.3288,-87.8293,25.6,11111222 
DISL,ioos:station:DISL:BSCA:1,2018-05-06T20:00:00Z,30.3288,-87.8293,25.8,11111222 
DISL,ioos:station:DISL:BSCA:1,2018-05-06T20:01:00Z,30.3288,-87.8293,25.91,1111122 
DISL,ioos:station:DISL:BSCA:1,2018-05-06T20:30:00Z,30.3288,-87.8293,25.9,11111222 
DISL,ioos:station:DISL:BSCA:1,2018-05-06T21:00:00Z,30.3288,-87.8293,26.3,11111222 
DISL,ioos:station:DISL:BSCA:1,2018-05-06T21:01:00Z,30.3288,-87.8293,26.32,1111122 
DISL,ioos:station:DISL:BSCA:1,2018-05-06T21:30:00Z,30.3288,-87.8293,26.4,11111222 
DISL,ioos:station:DISL:BSCA:1,2018-05-06T22:00:00Z,30.3288,-87.8293,26.8,11111222 
DISL,ioos:station:DISL:BSCA:1,2018-05-06T22:01:00Z,30.3288,-87.8293,26.93,1111122 
DISL,ioos:station:DISL:BSCA:1,2018-05-06T22:30:00Z,30.3288,-87.8293,27.3,11111222 
DISL,ioos:station:DISL:BSCA:1,2018-05-06T23:00:00Z,30.3288,-87.8293,27.4,11111222 
DISL,ioos:station:DISL:BSCA:1,2018-05-06T23:01:00Z,30.3288,-87.8293,27.2,1111122 
DISL,ioos:station:DISL:BSCA:1,2018-05-06T23:30:00Z,30.3288,-87.8293,27.3,11111222 
DISL,ioos:station:DISL:BSCA:1,2018-05-07T00:00:00Z,30.3288,-87.8293,27.1,11111222 
DISL,ioos:station:DISL:BSCA:1,2018-05-07T00:01:00Z,30.3288,-87.8293,27.2,1111122 
DISL,ioos:station:DISL:BSCA:1,2018-05-07T00:30:00Z,30.3288,-87.8293,26.7,11111222 
DISL,ioos:station:DISL:BSCA:1,2018-05-07T01:00:00Z,30.3288,-87.8293,26.1,11111222 
DISL,ioos:station:DISL:BSCA:1,2018-05-07T01:01:00Z,30.3288,-87.8293,26.15,1111122 
DISL,ioos:station:DISL:BSCA:1,2018-05-07T01:30:00Z,30.3288,-87.8293,25.6,11111222 
DISL,ioos:station:DISL:BSCA:1,2018-05-07T02:00:00Z,30.3288,-87.8293,25.0,11111222 
DISL,ioos:station:DISL:BSCA:1,2018-05-07T02:01:00Z,30.3288,-87.8293,25.03,1111122 
DISL,ioos:station:DISL:BSCA:1,2018-05-07T02:30:00Z,30.3288,-87.8293,24.4,11111222 
DISL,ioos:station:DISL:BSCA:1,2018-05-07T03:00:00Z,30.3288,-87.8293,24.3,11111222 
DISL,ioos:station:DISL:BSCA:1,2018-05-07T03:01:00Z,30.3288,-87.8293,24.15,1111122 
DISL,ioos:station:DISL:BSCA:1,2018-05-07T03:30:00Z,30.3288,-87.8293,23.8,11111222 
DISL,ioos:station:DISL:BSCA:1,2018-05-07T04:00:00Z,30.3288,-87.8293,23.1,11111222 
DISL,ioos:station:DISL:BSCA:1,2018-05-07T04:01:00Z,30.3288,-87.8293,23.11,1111122 
DISL,ioos:station:DISL:BSCA:1,2018-05-07T04:30:00Z,30.3288,-87.8293,22.8,11111222 
DISL,ioos:station:DISL:BSCA:1,2018-05-07T05:00:00Z,30.3288,-87.8293,22.5,11111222 
DISL,ioos:station:DISL:BSCA:1,2018-05-07T05:01:00Z,30.3288,-87.8293,22.47,1111122 
DISL,ioos:station:DISL:BSCA:1,2018-05-07T05:30:00Z,30.3288,-87.8293,22.7,11111222 
DISL,ioos:station:DISL:BSCA:1,2018-05-07T06:00:00Z,30.3288,-87.8293,22.0,11111222 
DISL,ioos:station:DISL:BSCA:1,2018-05-07T06:01:00Z,30.3288,-87.8293,22.03,1111122 
DISL,ioos:station:DISL:BSCA:1,2018-05-07T06:30:00Z,30.3288,-87.8293,21.9,11111222 
DISL,ioos:station:DISL:BSCA:1,2018-05-07T07:00:00Z,30.3288,-87.8293,21.6,11111222 
DISL,ioos:station:DISL:BSCA:1,2018-05-07T07:01:00Z,30.3288,-87.8293,21.53,1111122 
DISL,ioos:station:DISL:BSCA:1,2018-05-07T07:30:00Z,30.3288,-87.8293,21.5,11111222 
DISL,ioos:station:DISL:BSCA:1,2018-05-07T08:00:00Z,30.3288,-87.8293,21.2,11111222 
DISL,ioos:station:DISL:BSCA:1,2018-05-07T08:01:00Z,30.3288,-87.8293,21.25,1111122 
DISL,ioos:station:DISL:BSCA:1,2018-05-07T08:30:00Z,30.3288,-87.8293,21.1,11111222 
DISL,ioos:station:DISL:BSCA:1,2018-05-07T09:00:00Z,30.3288,-87.8293,20.9,11111222 
DISL,ioos:station:DISL:BSCA:1,2018-05-07T09:01:00Z,30.3288,-87.8293,20.92,1111122 
DISL,ioos:station:DISL:BSCA:1,2018-05-07T09:30:00Z,30.3288,-87.8293,21.3,11111222 
DISL,ioos:station:DISL:BSCA:1,2018-05-07T10:00:00Z,30.3288,-87.8293,20.4,11111222 
DISL,ioos:station:DISL:BSCA:1,2018-05-07T10:01:00Z,30.3288,-87.8293,20.2,1111122 
DISL,ioos:station:DISL:BSCA:1,2018-05-07T10:30:00Z,30.3288,-87.8293,19.4,11111222 
DISL,ioos:station:DISL:BSCA:1,2018-05-07T11:00:00Z,30.3288,-87.8293,19.8,11111222 
DISL,ioos:station:DISL:BSCA:1,2018-05-07T11:01:00Z,30.3288,-87.8293,19.86,1111122 
DISL,ioos:station:DISL:BSCA:1,2018-05-07T11:30:00Z,30.3288,-87.8293,19.6,11111222 
DISL,ioos:station:DISL:BSCA:1,2018-05-07T12:00:00Z,30.3288,-87.8293,20.2,11111222 
DISL,ioos:station:DISL:BSCA:1,2018-05-07T12:03:00Z,30.3288,-87.8293,20.2,1111122 
DISL,ioos:station:DISL:BSCA:1,2018-05-07T12:30:00Z,30.3288,-87.8293,21.0,11111222 
DISL,ioos:station:DISL:BSCA:1,2018-05-07T12:35:00Z,30.3288,-87.8293,21.05,1111122 
DISL,ioos:station:DISL:BSCA:1,2018-05-07T14:38:00Z,30.3288,-87.8293,23.0,1111122 
DISL,ioos:station:DISL:BSCA:1,2018-05-07T15:00:00Z,30.3288,-87.8293,22.9,11111222 
DISL,ioos:station:DISL:BSCA:1,2018-05-07T15:30:00Z,30.3288,-87.8293,23.1,11111222 
DISL,ioos:station:DISL:BSCA:1,2018-05-07T16:00:00Z,30.3288,-87.8293,23.8,11111222 
DISL,ioos:station:DISL:BSCA:1,2018-05-07T16:01:00Z,30.3288,-87.8293,23.88,1111122 
DISL,ioos:station:DISL:BSCA:1,2018-05-07T16:30:00Z,30.3288,-87.8293,24.5,11111222 
DISL,ioos:station:DISL:BSCA:1,2018-05-07T17:00:00Z,30.3288,-87.8293,24.8,11111222 
DISL,ioos:station:DISL:BSCA:1,2018-05-07T17:01:00Z,30.3288,-87.8293,24.79,1111122 
DISL,ioos:station:DISL:BSCA:1,2018-05-07T17:30:00Z,30.3288,-87.8293,25.2,11111222 
DISL,ioos:station:DISL:BSCA:1,2018-05-07T18:00:00Z,30.3288,-87.8293,25.2,11111222 
DISL,ioos:station:DISL:BSCA:1,2018-05-07T18:01:00Z,30.3288,-87.8293,25.13,1111122 
DISL,ioos:station:DISL:BSCA:1,2018-05-07T18:30:00Z,30.3288,-87.8293,25.6,11111222 
DISL,ioos:station:DISL:BSCA:1,2018-05-07T19:00:00Z,30.3288,-87.8293,26.2,11111222 
DISL,ioos:station:DISL:BSCA:1,2018-05-07T19:01:00Z,30.3288,-87.8293,26.11,1111122 
DISL,ioos:station:DISL:BSCA:1,2018-05-07T19:30:00Z,30.3288,-87.8293,25.8,11111222 
DISL,ioos:station:DISL:BSCA:1,2018-05-07T20:00:00Z,30.3288,-87.8293,26.2,11111222 
DISL,ioos:station:DISL:BSCA:1,2018-05-07T20:01:00Z,30.3288,-87.8293,26.11,1111122 
DISL,ioos:station:DISL:BSCA:1,2018-05-07T20:30:00Z,30.3288,-87.8293,25.9,11111222 
DISL,ioos:station:DISL:BSCA:1,2018-05-07T21:00:00Z,30.3288,-87.8293,26.1,11111222 
DISL,ioos:station:DISL:BSCA:1,2018-05-07T21:01:00Z,30.3288,-87.8293,26.08,1111122 
DISL,ioos:station:DISL:BSCA:1,2018-05-07T21:30:00Z,30.3288,-87.8293,26.1,11111222 
DISL,ioos:station:DISL:BSCA:1,2018-05-07T22:00:00Z,30.3288,-87.8293,26.2,11111222 
DISL,ioos:station:DISL:BSCA:1,2018-05-07T22:01:00Z,30.3288,-87.8293,26.18,1111122 
DISL,ioos:station:DISL:BSCA:1,2018-05-07T22:30:00Z,30.3288,-87.8293,26.0,11111222 
DISL,ioos:station:DISL:BSCA:1,2018-05-07T23:00:00Z,30.3288,-87.8293,25.9,11111222 
DISL,ioos:station:DISL:BSCA:1,2018-05-07T23:01:00Z,30.3288,-87.8293,25.88,1111122 
DISL,ioos:station:DISL:BSCA:1,2018-05-07T23:30:00Z,30.3288,-87.8293,25.9,11111222 
DISL,ioos:station:DISL:BSCA:1,2018-05-08T00:00:00Z,30.3288,-87.8293,25.8,11111222 
DISL,ioos:station:DISL:BSCA:1,2018-05-08T00:01:00Z,30.3288,-87.8293,25.81,1111122 
DISL,ioos:station:DISL:BSCA:1,2018-05-08T00:30:00Z,30.3288,-87.8293,25.6,11111222 
DISL,ioos:station:DISL:BSCA:1,2018-05-08T01:00:00Z,30.3288,-87.8293,25.3,11111222 
DISL,ioos:station:DISL:BSCA:1,2018-05-08T01:01:00Z,30.3288,-87.8293,25.3,1111122 
DISL,ioos:station:DISL:BSCA:1,2018-05-08T01:30:00Z,30.3288,-87.8293,25.2,11111222 
DISL,ioos:station:DISL:BSCA:1,2018-05-08T02:00:00Z,30.3288,-87.8293,25.4,11111222 
DISL,ioos:station:DISL:BSCA:1,2018-05-08T02:01:00Z,30.3288,-87.8293,25.4,1111122 
DISL,ioos:station:DISL:BSCA:1,2018-05-08T02:30:00Z,30.3288,-87.8293,25.3,11111222 
DISL,ioos:station:DISL:BSCA:1,2018-05-08T02:31:00Z,30.3288,-87.8293,25.33,1111122 
DISL,ioos:station:DISL:BSCA:1,2018-05-08T03:00:00Z,30.3288,-87.8293,25.2,11111222 
DISL,ioos:station:DISL:BSCA:1,2018-05-08T03:30:00Z,30.3288,-87.8293,25.1,11111222 
DISL,ioos:station:DISL:BSCA:1,2018-05-08T03:48:00Z,30.3288,-87.8293,24.99,1111122 
DISL,ioos:station:DISL:BSCA:1,2018-05-08T04:00:00Z,30.3288,-87.8293,25.1,11111222 
DISL,ioos:station:DISL:BSCA:1,2018-05-08T04:30:00Z,30.3288,-87.8293,24.8,11111222 
DISL,ioos:station:DISL:BSCA:1,2018-05-08T04:38:00Z,30.3288,-87.8293,24.93,1111122 
DISL,ioos:station:DISL:BSCA:1,2018-05-08T05:00:00Z,30.3288,-87.8293,24.9,11111222 
DISL,ioos:station:DISL:BSCA:1,2018-05-08T05:30:00Z,30.3288,-87.8293,24.7,11111222 
DISL,ioos:station:DISL:BSCA:1,2018-05-08T05:52:00Z,30.3288,-87.8293,24.66,1111122 
DISL,ioos:station:DISL:BSCA:1,2018-05-08T06:00:00Z,30.3288,-87.8293,24.7,11111222 
DISL,ioos:station:DISL:BSCA:1,2018-05-08T06:30:00Z,30.3288,-87.8293,23.2,11111222 
DISL,ioos:station:DISL:BSCA:1,2018-05-08T07:00:00Z,30.3288,-87.8293,23.2,11111222 
DISL,ioos:station:DISL:BSCA:1,2018-05-08T07:01:00Z,30.3288,-87.8293,23.1,1111122 
DISL,ioos:station:DISL:BSCA:1,2018-05-08T07:30:00Z,30.3288,-87.8293,22.6,11111222 
DISL,ioos:station:DISL:BSCA:1,2018-05-08T08:00:00Z,30.3288,-87.8293,22.7,11111222 
DISL,ioos:station:DISL:BSCA:1,2018-05-08T08:01:00Z,30.3288,-87.8293,22.64,1111122 
DISL,ioos:station:DISL:BSCA:1,2018-05-08T08:30:00Z,30.3288,-87.8293,22.7,11111222 
DISL,ioos:station:DISL:BSCA:1,2018-05-08T08:31:00Z,30.3288,-87.8293,22.68,1111122 
DISL,ioos:station:DISL:BSCA:1,2018-05-08T09:00:00Z,30.3288,-87.8293,22.4,11111222 
DISL,ioos:station:DISL:BSCA:1,2018-05-08T09:30:00Z,30.3288,-87.8293,22.2,11111222 
DISL,ioos:station:DISL:BSCA:1,2018-05-08T10:00:00Z,30.3288,-87.8293,21.7,11111222 
DISL,ioos:station:DISL:BSCA:1,2018-05-08T10:30:00Z,30.3288,-87.8293,21.9,11111222 
DISL,ioos:station:DISL:BSCA:1,2018-05-08T11:00:00Z,30.3288,-87.8293,21.5,11111222 
DISL,ioos:station:DISL:BSCA:1,2018-05-08T11:30:00Z,30.3288,-87.8293,21.9,11111222 
DISL,ioos:station:DISL:BSCA:1,2018-05-08T12:00:00Z,30.3288,-87.8293,22.0,11111222 
DISL,ioos:station:DISL:BSCA:1,2018-05-08T12:01:00Z,30.3288,-87.8293,22.0,1111122 
DISL,ioos:station:DISL:BSCA:1,2018-05-08T12:30:00Z,30.3288,-87.8293,22.7,11111222 
DISL,ioos:station:DISL:BSCA:1,2018-05-08T13:00:00Z,30.3288,-87.8293,23.0,11111222 
DISL,ioos:station:DISL:BSCA:1,2018-05-08T13:01:00Z,30.3288,-87.8293,23.14,1111122 
DISL,ioos:station:DISL:BSCA:1,2018-05-08T13:30:00Z,30.3288,-87.8293,23.9,11111222 
DISL,ioos:station:DISL:BSCA:1,2018-05-08T14:00:00Z,30.3288,-87.8293,24.3,11111222 
DISL,ioos:station:DISL:BSCA:1,2018-05-08T14:01:00Z,30.3288,-87.8293,24.35,1111122 
DISL,ioos:station:DISL:BSCA:1,2018-05-08T14:30:00Z,30.3288,-87.8293,24.4,11111222 
DISL,ioos:station:DISL:BSCA:1,2018-05-08T15:00:00Z,30.3288,-87.8293,24.6,11111222 
DISL,ioos:station:DISL:BSCA:1,2018-05-08T15:01:00Z,30.3288,-87.8293,24.59,1111122 
DISL,ioos:station:DISL:BSCA:1,2018-05-08T15:30:00Z,30.3288,-87.8293,25.0,11111222 
DISL,ioos:station:DISL:BSCA:1,2018-05-08T16:00:00Z,30.3288,-87.8293,25.3,11111222 
DISL,ioos:station:DISL:BSCA:1,2018-05-08T16:01:00Z,30.3288,-87.8293,25.33,1111122 
DISL,ioos:station:DISL:BSCA:1,2018-05-08T16:30:00Z,30.3288,-87.8293,25.0,11111222 
DISL,ioos:station:DISL:BSCA:1,2018-05-08T17:00:00Z,30.3288,-87.8293,26.1,11111222 
DISL,ioos:station:DISL:BSCA:1,2018-05-08T17:01:00Z,30.3288,-87.8293,26.11,1111122 
DISL,ioos:station:DISL:BSCA:1,2018-05-08T17:30:00Z,30.3288,-87.8293,26.6,11111222 
DISL,ioos:station:DISL:BSCA:1,2018-05-08T18:00:00Z,30.3288,-87.8293,26.6,11111222 
DISL,ioos:station:DISL:BSCA:1,2018-05-08T18:01:00Z,30.3288,-87.8293,26.52,1111122 
DISL,ioos:station:DISL:BSCA:1,2018-05-08T18:30:00Z,30.3288,-87.8293,26.8,11111222 
DISL,ioos:station:DISL:BSCA:1,2018-05-08T19:00:00Z,30.3288,-87.8293,27.3,11111222 
DISL,ioos:station:DISL:BSCA:1,2018-05-08T19:04:00Z,30.3288,-87.8293,27.26,1111122 
DISL,ioos:station:DISL:BSCA:1,2018-05-08T19:30:00Z,30.3288,-87.8293,27.5,11111222 
DISL,ioos:station:DISL:BSCA:1,2018-05-08T20:00:00Z,30.3288,-87.8293,27.6,11111222 
DISL,ioos:station:DISL:BSCA:1,2018-05-08T20:01:00Z,30.3288,-87.8293,27.66,1111122 
DISL,ioos:station:DISL:BSCA:1,2018-05-08T20:30:00Z,30.3288,-87.8293,27.4,11111222 
DISL,ioos:station:DISL:BSCA:1,2018-05-08T21:00:00Z,30.3288,-87.8293,27.0,11111222 
DISL,ioos:station:DISL:BSCA:1,2018-05-08T21:01:00Z,30.3288,-87.8293,27.04,1111122 
DISL,ioos:station:DISL:BSCA:1,2018-05-08T21:30:00Z,30.3288,-87.8293,27.0,11111222 
DISL,ioos:station:DISL:BSCA:1,2018-05-08T22:00:00Z,30.3288,-87.8293,27.0,11111222 
DISL,ioos:station:DISL:BSCA:1,2018-05-08T22:01:00Z,30.3288,-87.8293,26.98,1111122 
DISL,ioos:station:DISL:BSCA:1,2018-05-08T22:30:00Z,30.3288,-87.8293,27.0,11111222 
DISL,ioos:station:DISL:BSCA:1,2018-05-08T23:00:00Z,30.3288,-87.8293,26.8,11111222 
DISL,ioos:station:DISL:BSCA:1,2018-05-08T23:01:00Z,30.3288,-87.8293,26.77,1111122 
DISL,ioos:station:DISL:BSCA:1,2018-05-08T23:30:00Z,30.3288,-87.8293,26.6,11111222 
DISL,ioos:station:DISL:BSCA:1,2018-05-09T00:00:00Z,30.3288,-87.8293,26.4,11111222 
DISL,ioos:station:DISL:BSCA:1,2018-05-09T00:01:00Z,30.3288,-87.8293,26.48,1111122 
DISL,ioos:station:DISL:BSCA:1,2018-05-09T00:30:00Z,30.3288,-87.8293,26.2,11111222 
DISL,ioos:station:DISL:BSCA:1,2018-05-09T01:00:00Z,30.3288,-87.8293,26.0,11111222 
DISL,ioos:station:DISL:BSCA:1,2018-05-09T01:01:00Z,30.3288,-87.8293,26.01,1111122 
DISL,ioos:station:DISL:BSCA:1,2018-05-09T01:30:00Z,30.3288,-87.8293,26.1,11111222 
DISL,ioos:station:DISL:BSCA:1,2018-05-09T01:50:00Z,30.3288,-87.8293,26.05,1111122 
DISL,ioos:station:DISL:BSCA:1,2018-05-09T02:00:00Z,30.3288,-87.8293,26.1,11111222 
DISL,ioos:station:DISL:BSCA:1,2018-05-09T02:30:00Z,30.3288,-87.8293,25.8,11111222 
DISL,ioos:station:DISL:BSCA:1,2018-05-09T02:31:00Z,30.3288,-87.8293,25.81,1111122 
DISL,ioos:station:DISL:BSCA:1,2018-05-09T03:00:00Z,30.3288,-87.8293,25.8,11111222 
DISL,ioos:station:DISL:BSCA:1,2018-05-09T03:30:00Z,30.3288,-87.8293,25.7,11111222 
DISL,ioos:station:DISL:BSCA:1,2018-05-09T03:53:00Z,30.3288,-87.8293,25.67,1111122 
DISL,ioos:station:DISL:BSCA:1,2018-05-09T04:00:00Z,30.3288,-87.8293,25.6,11111222 
DISL,ioos:station:DISL:BSCA:1,2018-05-09T04:30:00Z,30.3288,-87.8293,25.5,11111222 
DISL,ioos:station:DISL:BSCA:1,2018-05-09T04:37:00Z,30.3288,-87.8293,25.33,1111122 
DISL,ioos:station:DISL:BSCA:1,2018-05-09T05:00:00Z,30.3288,-87.8293,25.3,11111222 
DISL,ioos:station:DISL:BSCA:1,2018-05-09T05:04:00Z,30.3288,-87.8293,25.44,1111122 
DISL,ioos:station:DISL:BSCA:1,2018-05-09T06:00:00Z,30.3288,-87.8293,25.2,11111222 
DISL,ioos:station:DISL:BSCA:1,2018-05-09T06:30:00Z,30.3288,-87.8293,25.1,11111222 
DISL,ioos:station:DISL:BSCA:1,2018-05-09T07:00:00Z,30.3288,-87.8293,25.1,11111222 
DISL,ioos:station:DISL:BSCA:1,2018-05-09T07:30:00Z,30.3288,-87.8293,24.9,11111222 
DISL,ioos:station:DISL:BSCA:1,2018-05-09T08:00:00Z,30.3288,-87.8293,24.9,11111222 
DISL,ioos:station:DISL:BSCA:1,2018-05-09T08:30:00Z,30.3288,-87.8293,24.8,11111222 
DISL,ioos:station:DISL:BSCA:1,2018-05-09T09:00:00Z,30.3288,-87.8293,24.8,11111222 